This is the latest recevied weather packets stored in our database for station/object IK6ZNK-3. If no packets are shown the sender has not sent any weather packets the latest 10 day(s).
| Time | Temp. | Humidity | Pressure | Rain* | Wind** | Luminosity | Snow |
|---|---|---|---|---|---|---|---|
| 1777581606 | 10.56° C | 71% | 1015 hPa | 0 mm | - | - | - |
| 1777581007 | 10° C | 72% | 1015 hPa | 0 mm | - | - | - |
| 1777580407 | 10° C | 73% | 1015 hPa | 0 mm | - | - | - |
| 1777579807 | 10° C | 72% | 1015 hPa | 0 mm | - | - | - |
| 1777579207 | 10° C | 72% | 1014.9 hPa | 0 mm | - | - | - |
| 1777578607 | 10° C | 72% | 1014.8 hPa | 0 mm | - | - | - |
| 1777578007 | 10.56° C | 73% | 1015 hPa | 0 mm | - | - | - |
| 1777577407 | 10.56° C | 72% | 1015 hPa | 0 mm | - | - | - |
| 1777576807 | 10° C | 73% | 1014.8 hPa | 0 mm | - | - | - |
| 1777576207 | 10.56° C | 73% | 1014.8 hPa | 0 mm | - | - | - |
| 1777575608 | 10.56° C | 72% | 1014.6 hPa | 0 mm | - | - | - |
| 1777575007 | 10.56° C | 72% | 1014.5 hPa | 0 mm | - | - | - |
| 1777574407 | 10.56° C | 72% | 1014.3 hPa | 0 mm | - | - | - |
| 1777573807 | 10.56° C | 71% | 1014.4 hPa | 0 mm | - | - | - |
| 1777573208 | 10.56° C | 71% | 1014.2 hPa | 0 mm | - | - | - |
| 1777572609 | 10.56° C | 71% | 1014.2 hPa | 0 mm | - | - | - |
| 1777572008 | 11.11° C | 70% | 1013.8 hPa | 0 mm | - | - | - |
| 1777571407 | 11.11° C | 70% | 1013.9 hPa | 0 mm | - | - | - |
| 1777570807 | 11.67° C | 69% | 1013.7 hPa | 0 mm | - | - | - |
| 1777570207 | 12.22° C | 66% | 1013.8 hPa | 0 mm | - | - | - |
| 1777569607 | 12.22° C | 64% | 1013.7 hPa | 0 mm | - | - | - |
| 1777569007 | 12.22° C | 64% | 1013.7 hPa | 0 mm | - | - | - |
| 1777568410 | 12.22° C | 65% | 1013.6 hPa | 0 mm | - | - | - |
| 1777567812 | 12.22° C | 67% | 1013.4 hPa | 0 mm | - | - | - |
| 1777567211 | 12.22° C | 69% | 1013.5 hPa | 0 mm | - | - | - |
* Rain latest hour (hover to see other rain measurements)
** Current wind speed in m/s (hover to see current wind gust speed)